Lapse_Rate
7.2 6.5 6.5 6.5 6.5 6.5 6.5 6.5 6.5 6.5 6.5 6.5 6.5 6.5 6.5 7.0 7.2 7.2 7.4 7.6 7.7 8.0 8.5 8.5 8.8 8.2 6.3 6.0 5.0 5.0 5.0 5.5 6.2 7.0 8.0 8.2 8.8 9.0 8.9 7.3 5.0 4.5 5.5 4.7
6.5 6.5 6.5 6.5 6.5 6.5 6.5 6.5 6.5 6.5 6.5 6.5 6.5 6.5 6.5 6.8 6.9 7.2 7.3 7.5 7.6 7.9 8.2 8.4 8.7 7.3 5.9 4.8 4.1 4.2 3.9 4.2 5.0 6.1 7.9 9.2 9.4 9.5 9.6 9.7 9.5 7.7 5.2 5.6
6.5 6.5 6.7 6.5 6.5 6.5 6.5 6.5 6.5 6.5 6.5 6.5 6.5 6.5 6.5 6.6 7.1 7.3 7.5 7.7 7.8 7.7 7.9 8.2 8.3 6.7 5.2 3.9 3.2 3.3 2.8 2.9 3.4 4.8 5.9 7.7 8.7 9.0 9.0 9.3 9.4 9.3 7.2 5.9
6.5 6.7 6.5 6.5 6.5 6.5 6.5 6.5 6.5 6.5 6.5 6.5 6.5 6.5 6.5 6.5 6.5 6.6 7.1 7.4 7.6 7.8 8.1 8.3 8.4 6.4 4.4 3.4 3.2 3.3 2.7 2.5 3.1 3.9 7.3 8.7 9.0 8.8 9.2 9.3 9.4 8.6 7.8 6.9
6.5 6.5 6.5 6.5 6.5 6.5 6.5 6.5 6.5 6.5 6.5 6.5 6.5 6.5 6.5 6.5 6.5 6.5 6.7 7.2 7.5 7.8 8.1 8.2 7.4 5.4 4.3 3.3 3.1 3.4 3.5 3.1 3.5 4.0 4.9 5.8 6.6 7.3 7.4 7.3 6.9 7.2 7.6 8.3
6.5 7.0 6.5 6.5 6.5 6.5 6.5 6.5 6.5 6.5 6.5 6.5 6.5 6.5 6.5 6.5 6.5 6.5 6.7 7.2 7.4 7.9 8.1 8.2 6.1 5.6 4.5 3.6 3.3 3.1 3.4 2.4 2.3 3.2 3.7 4.4 5.2 6.0 5.4 5.5 5.4 5.5 4.9 4.5
6.5 6.5 6.6 6.8 6.5 6.5 6.5 6.5 6.5 6.5 6.5 6.5 6.5 6.5 6.5 6.5 6.5 6.5 6.6 7.0 7.5 7.9 8.1 8.2 7.7 6.1 4.0 3.2 2.9 3.0 2.3 1.6 1.3 1.3 1.7 1.9 2.6 3.5 3.8 3.6 4.4 4.8 5.4 5.3
6.5 6.5 6.5 6.5 6.5 6.5 6.5 6.5 6.5 6.5 6.5 6.5 6.5 6.5 6.5 6.5 6.9 7.1 7.3 7.4 7.6 7.8 8.0 8.1 7.1 5.4 4.0 3.3 2.6 2.2 1.8 1.5 1.1 1.3 1.7 1.7 1.8 1.8 2.0 2.0 2.1 2.7 2.9 3.0
6.5 6.5 6.5 6.5 6.5 6.5 6.5 6.5 6.5 6.5 6.5 6.5 6.5 6.5 6.5 6.5 6.5 6.8 7.0 7.2 7.4 7.7 7.9 7.5 6.0 5.1 3.7 2.6 1.9 1.4 1.4 0.9 0.5 0.8 1.2 1.6 1.7 1.7 1.8 2.1 2.3 2.4 2.5 2.5
6.5 6.5 6.5 6.5 6.6 6.6 6.5 6.5 6.5 6.5 6.5 6.5 6.5 6.5 6.5 6.5 6.5 6.5 6.6 7.0 7.4 7.7 7.9 7.6 6.6 4.5 3.1 2.2 2.0 1.4 1.1 0.7 0.2 0.4 0.8 1.2 1.3 1.0 1.1 1.2 0.7 0.6 0.9 1.0
6.5 6.5 6.5 6.5 6.5 6.5 6.5 6.5 6.5 6.5 6.5 6.5 6.5 6.5 6.5 6.5 6.5 6.5 6.7 7.2 7.4 7.7 7.8 7.9 6.6 3.9 2.6 2.2 1.8 1.7 1.2 0.8 0.2 -0.0 -0.0 0.2 0.3 -0.1 -0.1 -0.2 -0.4 -0.6 -0.2 0.0
6.5 6.5 6.5 6.5 6.5 6.5 6.5 6.5 6.5 6.5 6.5 6.5 6.5 6.5 6.5 6.5 6.5 6.8 6.9 7.2 7.6 7.7 8.0 8.1 6.6 4.1 2.8 2.4 1.9 1.8 0.7 0.2 -0.6 -0.6 -0.5 -0.2 -0.5 -0.7 -0.8 -0.7 -0.7 -0.7 -0.7 -0.0
6.5 6.5 6.5 6.5 6.5 6.5 6.5 6.5 6.5 6.5 6.5 6.5 6.5 6.5 6.5 6.6 6.6 7.0 6.9 7.2 7.5 7.7 8.0 8.0 6.3 4.1 3.7 2.4 1.6 1.6 0.3 -0.5 -1.0 -1.0 -0.7 -0.8 -1.2 -1.3 -1.1 -0.9 -0.7 -0.5 -0.3 0.0
6.4 6.5 6.5 6.5 6.5 6.5 6.5 6.5 6.5 6.5 6.5 6.5 6.5 6.5 6.5 6.5 6.5 6.7 7.0 7.4 7.5 7.7 7.8 7.7 6.4 5.0 3.4 1.5 1.1 0.4 -0.3 -1.1 -1.4 -1.0 -0.8 -1.3 -1.6 -1.4 -1.1 -0.8 -0.7 -0.6 -0.4 -0.3
6.5 6.5 6.5 6.5 6.5 6.5 6.5 6.5 6.5 6.5 6.5 6.5 6.5 6.5 6.5 6.5 6.5 6.8 7.2 7.4 7.4 7.5 7.7 7.9 7.5 5.6 3.6 1.9 1.1 0.1 -0.4 -1.2 -1.3 -0.6 -0.6 -1.0 -1.0 -0.7 -0.5 -0.7 -0.7 -0.5 -0.5 -0.2
6.5 6.5 6.5 6.5 6.5 6.5 6.5 6.5 6.5 6.5 6.5 6.5 6.5 6.5 6.5 6.8 7.1 7.0 7.1 7.1 7.1 7.5 7.8 7.6 7.1 6.0 4.5 2.9 1.9 -0.4 -0.5 -1.0 -0.7 -0.3 -0.4 -0.6 -0.5 -0.4 -0.6 -0.8 -0.7 -0.5 -0.4 -0.2
6.5 6.5 6.5 6.5 6.5 6.5 6.5 6.5 6.5 6.5 6.5 6.5 6.5 6.5 6.5 6.5 6.5 6.6 6.8 7.1 7.0 7.2 6.8 6.6 6.2 5.6 4.8 2.7 1.0 0.5 -0.4 -0.8 -0.6 -0.2 0.0 -0.3 -0.5 -0.3 -0.4 -0.4 -0.3 -0.2 -0.0 0.6
6.5 6.5 6.5 6.5 6.5 6.5 6.5 6.5 6.5 6.5 6.5 6.5 6.5 6.5 6.5 6.6 6.9 7.1 7.3 7.1 6.6 6.6 6.2 6.3 5.8 6.0 4.1 1.8 0.4 0.0 -0.0 0.0 -0.0 0.1 0.3 -0.1 -0.3 -0.1 0.1 0.7 0.7 1.0 1.2 1.5
6.5 6.5 6.5 6.5 6.5 6.5 6.5 6.5 6.5 6.5 6.5 6.5 6.5 6.5 6.6 6.8 6.8 6.8 6.7 6.9 7.3 7.0 6.7 6.0 5.4 4.6 2.5 1.2 0.6 0.8 0.6 0.5 0.8 0.4 0.2 -0.1 -0.3 -0.2 0.2 0.8 1.1 1.3 1.3 1.8
6.5 6.5 6.5 6.5 6.5 6.5 6.5 6.5 6.7 6.5 6.5 6.5 6.6 6.5 6.5 6.6 6.5 6.5 6.8 3.0 4.4 4.2 4.0 4.2 4.0 3.5 3.2 1.6 1.3 1.3 0.9 1.0 0.5 -0.3 -0.5 -0.4 -0.2 0.0 0.7 1.0 1.1 1.6 2.2 2.6
6.5 6.5 6.5 6.5 6.5 6.5 6.5 6.5 6.9 6.5 6.5 6.2 6.4 6.6 6.5 6.5 6.7 5.4 3.1 4.2 4.0 2.6 2.8 3.7 3.4 3.4 3.2 1.3 1.7 2.1 1.5 1.2 0.1 -0.4 -0.4 -0.1 0.1 0.2 1.2 1.2 1.5 2.1 2.5 2.8
6.5 6.5 6.5 6.5 6.5 6.5 6.6 6.5 6.5 6.5 6.0 5.3 5.3 4.9 3.9 4.7 1.3 1.2 3.6 4.2 5.1 5.1 5.1 4.8 4.3 3.4 2.3 1.9 2.5 1.9 1.5 0.0 -0.9 -1.2 -0.9 -0.7 -0.3 0.4 1.2 0.8 1.4 1.9 2.5 2.7
6.5 6.5 6.5 6.5 6.5 6.4 5.7 6.2 5.8 4.7 5.4 4.2 4.4 4.2 2.7 2.0 2.4 3.6 4.4 4.7 4.9 5.0 5.8 5.9 4.1 2.1 1.7 1.2 2.5 2.0 -0.1 -1.0 -1.4 -2.4 -2.0 -1.0 -0.6 0.1 0.5 1.0 1.7 1.9 2.4 3.0
6.5 6.6 6.5 6.5 6.5 6.5 6.3 5.4 2.7 2.2 3.0 3.1 2.2 2.3 3.6 3.5 3.5 4.1 4.4 6.1 5.4 5.7 4.5 4.8 3.0 1.2 0.2 0.1 -0.1 -0.3 -1.4 -2.2 -3.6 -2.2 -1.0 -0.2 -0.1 -0.3 0.7 1.3 2.2 2.2 2.8 3.2
6.5 6.5 6.5 6.5 6.5 6.5 6.3 5.0 5.6 2.9 1.3 0.3 0.3 2.6 3.7 4.2 4.1 4.5 4.7 5.6 5.4 3.5 2.6 2.7 2.0 1.0 0.0 -0.4 -1.3 -2.3 -2.8 -3.2 -2.4 -1.4 -0.5 -0.1 0.3 0.4 0.7 1.5 1.7 2.3 3.1 3.7
6.5 6.5 6.5 6.5 6.4 6.5 6.3 2.5 3.6 2.8 1.1 1.0 1.6 1.6 3.3 4.0 4.2 4.9 4.6 4.3 3.7 2.6 2.1 1.9 1.8 0.8 -0.7 -1.4 -2.2 -3.6 -4.3 -4.2 -3.8 -1.2 -0.5 -0.6 -0.3 0.5 1.3 1.3 1.4 2.8 3.1 3.3
Wind_Speed
14 10 15 17 17 15 6 13 13 11 6 8 15 18 16 14 16 18 16 17 17 17 13 3 1 3 5 6 7 8 9 9 7 7 7 7 8 7 8 9 14 14 13 13
8 17 15 14 16 16 11 11 12 3 6 9 13 18 18 18 20 19 20 19 18 15 9 3 1 2 5 6 8 9 9 9 7 7 6 7 7 6 6 7 9 13 12 12
15 3 18 15 15 17 17 15 12 8 7 12 14 21 24 22 23 20 20 18 14 8 6 4 2 4 6 8 9 10 10 10 9 9 6 7 6 6 6 6 6 6 7 10
13 17 8 18 18 16 17 16 14 13 7 7 5 7 6 8 10 11 12 13 12 10 7 6 5 5 7 8 9 10 11 11 10 12 6 5 6 6 5 6 4 4 4 9
8 11 14 16 18 16 12 4 11 11 12 11 14 7 5 10 15 18 16 12 9 9 9 8 7 6 7 8 8 9 10 11 12 12 11 8 9 7 7 7 9 10 8 8
16 1 9 15 8 10 9 7 5 5 7 9 15 12 9 12 13 3 7 12 9 10 10 8 7 6 6 6 6 8 9 11 12 12 13 12 10 8 7 7 6 6 5 6
15 11 4 4 11 8 11 9 4 5 6 8 0 12 15 6 4 9 6 9 12 11 10 9 7 5 5 6 7 7 9 11 12 12 12 13 12 11 10 10 7 9 7 7
14 9 19 13 14 8 20 15 6 6 6 5 7 10 4 5 13 10 9 11 11 11 9 8 7 5 5 4 6 7 8 9 11 11 11 11 12 8 7 10 8 7 8 8
15 13 10 13 14 15 11 17 15 5 3 4 8 10 13 10 11 12 8 11 13 12 11 9 7 5 4 4 6 7 8 9 10 10 9 10 9 10 9 10 9 8 9 9
5 5 2 11 11 13 10 8 8 4 6 9 12 16 13 7 14 15 13 13 14 13 11 9 7 5 4 4 4 6 7 8 9 9 9 8 9 10 9 9 10 10 10 11
9 6 3 11 14 17 11 9 9 7 8 9 12 12 10 15 16 17 17 15 14 14 12 11 8 6 5 3 3 4 5 7 7 8 8 8 8 9 9 9 10 10 10 11
20 6 10 14 2 16 17 16 18 8 13 11 16 20 4 2 8 11 14 15 17 14 12 11 9 8 6 4 3 3 4 5 6 7 7 8 9 9 9 10 10 11 11 11
15 6 5 3 5 5 11 15 18 20 13 14 12 16 13 17 9 10 11 12 12 13 13 11 10 9 7 5 3 2 3 4 5 6 7 7 8 9 9 10 10 11 11 11
16 11 16 17 17 10 11 17 21 18 9 20 19 27 21 13 10 13 13 12 15 14 16 14 12 10 8 5 3 2 2 4 5 5 6 7 8 9 9 9 10 10 10 10
12 8 20 22 21 14 13 17 18 22 26 19 24 24 27 20 17 16 13 15 15 18 18 16 14 12 10 7 5 3 2 3 3 4 5 6 7 7 8 9 9 9 10 10
10 9 14 17 20 19 21 16 16 24 26 24 27 27 28 22 18 16 18 16 16 16 18 17 14 13 11 9 7 5 3 2 1 2 4 5 6 7 8 8 9 9 9 10
13 10 6 13 16 17 16 22 25 22 22 25 23 29 25 27 24 21 17 14 18 19 19 18 16 13 11 9 7 6 4 3 2 3 3 5 6 7 8 8 8 9 9 9
12 15 9 10 7 16 14 18 21 26 26 24 24 28 30 27 24 16 15 17 17 19 18 17 13 13 11 9 7 6 5 4 3 3 3 5 6 7 7 8 8 9 8 9
9 8 7 7 13 18 11 16 21 22 27 26 26 27 27 28 22 20 19 14 19 18 12 12 12 12 11 10 8 8 6 5 4 3 3 5 6 6 6 7 9 8 8 9
14 13 10 6 9 14 16 20 6 7 11 22 21 21 25 24 14 17 16 8 5 10 11 12 14 12 10 9 8 8 6 5 4 3 4 5 5 6 6 7 8 8 8 7
9 8 15 14 13 6 8 7 5 4 7 5 12 17 18 17 15 8 8 8 10 12 15 14 13 11 10 9 8 8 6 4 4 3 4 4 5 6 6 7 6 7 7 8
13 8 9 10 11 16 18 4 9 12 12 11 5 6 5 3 4 10 12 12 12 13 14 13 12 11 9 7 8 8 6 3 3 3 3 4 4 5 5 6 7 7 7 7
8 13 12 9 6 1 4 11 11 5 8 5 4 4 4 5 8 12 12 15 14 14 11 11 11 12 9 6 6 8 5 3 2 3 3 3 4 3 5 6 6 6 7 6
9 13 6 13 17 13 8 6 3 4 7 3 4 4 6 7 11 11 13 12 12 11 10 8 10 10 9 7 6 6 4 3 2 2 3 3 3 4 4 4 4 5 5 5
7 6 10 10 14 14 12 9 7 10 8 6 4 4 8 8 10 12 12 11 12 11 10 9 9 10 9 8 7 5 3 2 1 1 2 3 4 4 5 4 4 4 4 6
14 15 10 11 11 10 14 3 3 9 11 10 9 8 6 9 10 9 11 12 12 11 10 9 8 9 9 7 6 5 3 1 2 1 1 2 3 3 3 4 5 6 7 11
Wind_Direction
196 202 208 201 212 229 307 227 233 227 175 231 239 251 248 244 235 249 253 258 259 260 262 28 350 321 340 357 349 341 327 318 303 281 259 250 251 242 243 246 236 248 247 234
171 222 217 223 214 226 224 235 231 218 221 230 262 256 256 249 247 247 250 250 253 256 260 157 241 24 26 17 8 1 357 349 324 295 280 274 276 269 261 263 250 216 229 238
204 119 215 213 219 218 223 229 227 234 191 242 269 272 254 248 248 250 242 248 255 255 233 182 137 56 36 30 19 14 11 5 358 336 283 268 262 264 270 264 258 258 196 215
233 236 214 217 222 214 228 221 238 251 233 245 161 289 238 205 215 210 228 225 210 182 179 158 125 69 48 29 24 22 21 19 11 5 337 295 293 294 304 313 319 351 207 215
205 213 197 217 217 215 237 191 206 220 236 271 252 260 243 221 243 248 226 197 209 170 167 148 119 90 61 37 26 20 30 30 24 27 24 22 19 2 360 6 356 3 343 304
220 53 228 223 227 200 142 140 150 212 248 254 236 223 240 219 220 190 197 216 160 167 158 139 115 103 75 51 35 32 30 30 26 28 31 29 32 23 21 10 2 359 358 9
218 201 194 223 177 199 191 183 196 219 215 243 327 216 249 311 207 250 260 162 171 164 163 156 140 118 80 55 41 38 28 32 26 25 29 26 18 24 25 17 6 3 359 0
206 212 204 191 210 193 199 199 201 219 218 249 142 228 240 254 235 245 242 167 169 175 161 155 144 130 106 72 49 38 39 33 26 24 22 25 22 20 17 12 4 4 0 356
200 224 175 185 196 185 192 217 219 297 205 279 216 243 279 248 248 214 211 198 181 184 173 164 154 133 105 76 51 39 30 30 24 19 16 18 17 16 10 6 4 0 357 351
199 209 158 171 210 240 231 204 202 194 219 243 251 256 253 222 230 228 198 199 193 181 178 170 162 140 114 76 55 49 33 31 23 16 13 11 9 8 1 359 0 358 350 351
226 229 120 156 205 194 202 221 215 233 236 244 260 255 277 262 221 227 220 205 199 193 187 178 166 148 128 111 69 57 32 28 19 16 7 7 8 3 4 4 0 357 350 351
203 216 219 204 197 230 213 211 202 205 216 238 252 258 223 311 283 225 240 212 218 196 193 183 174 169 161 148 104 74 41 31 17 10 4 8 9 4 6 3 359 357 356 353
181 201 192 223 222 200 226 222 225 233 245 235 235 256 234 248 217 220 231 218 206 191 186 189 187 187 181 169 149 120 54 32 18 12 9 13 11 7 6 1 358 359 355 357
171 205 219 229 232 172 210 218 221 227 230 238 237 253 256 244 231 232 240 228 205 192 197 196 196 191 184 177 167 116 56 34 18 14 14 17 10 5 4 0 0 358 357 358
177 226 226 241 257 255 221 227 218 220 233 234 248 246 258 260 260 253 227 235 197 202 203 204 199 194 186 181 166 144 90 44 19 23 22 17 8 4 4 4 1 359 0 360
182 230 222 241 242 243 256 240 237 227 234 243 249 258 262 271 271 259 254 218 209 209 208 204 198 191 188 179 173 162 148 119 67 45 28 14 9 6 7 3 1 1 2 359
190 213 202 232 228 241 245 236 237 244 234 235 241 250 258 261 257 254 257 250 207 213 206 199 193 188 181 176 166 167 150 138 105 66 38 19 9 6 4 357 359 1 358 353
191 208 226 245 244 242 245 243 239 239 244 244 248 249 254 257 265 267 257 238 220 216 204 192 179 178 166 154 158 151 145 132 112 81 50 27 13 6 357 353 357 354 351 350
227 218 233 236 241 255 258 237 234 235 241 242 249 252 255 259 269 277 255 232 231 215 191 168 162 162 156 160 155 152 147 131 113 78 47 20 7 357 348 352 349 350 342 345
216 230 228 209 235 241 245 252 308 248 266 254 247 251 258 265 259 258 277 177 131 119 135 143 145 146 154 150 157 152 144 136 108 61 23 1 352 342 334 345 339 336 333 332
203 212 226 228 242 233 256 161 119 148 235 243 231 238 247 249 246 284 102 114 126 134 139 140 143 153 148 148 154 147 136 115 70 25 357 349 336 329 327 333 329 329 328 330
195 201 217 235 243 248 226 133 206 235 237 244 200 246 277 342 101 132 143 143 142 142 143 148 144 139 142 151 151 142 131 94 52 11 346 325 321 325 330 325 327 334 336 331
213 209 213 208 230 89 195 222 221 243 249 235 227 211 244 167 170 154 151 149 150 152 152 152 144 140 137 126 147 140 115 73 33 348 307 300 327 326 324 333 335 334 343 338
220 246 251 259 254 243 250 241 230 210 232 245 235 230 194 199 171 159 151 154 143 150 145 139 136 136 136 123 102 103 104 63 33 311 307 318 323 339 344 332 340 340 339 338
241 176 219 246 257 264 274 252 234 216 222 224 198 211 206 171 175 159 147 153 146 144 142 152 154 149 141 133 117 97 77 41 354 306 313 340 341 342 331 333 327 323 323 330
226 228 218 235 247 238 255 336 269 204 212 204 181 181 181 166 165 158 148 147 145 139 147 145 146 143 136 131 128 112 82 62 11 326 351 356 323 329 329 325 321 319 316 322